Weather in Il'inka

Russia / Tyva Republic     51°06′55″N   95°28′51″E
temp.,
°C
wind,
m/s
gust,
m/s
humid.,
%
clouds,
%
prec.,
mm/h
press.,
hPa
HPBL,
m
23 may, mon
mon2301:00+14se2230100 0.0 100729
04:00+13se2228100 0.0 100730
07:00+17w1224100 0.0 1009139
10:00+22wnw35294 0.0 10111292
13:00+25nw692517 0.0 10102758
16:00+24nnw692898 0.0 10113055
19:00+19n464223 0.0 10151518
22:00+12n017199 0.0 101911
24 may, tue
tue2401:00+10ene01804 0.0 102010
04:00+8sse118812 0.0 102111
07:00+13s1166100 0.0 1022320
10:00+20nw22415 0.0 10191349
13:00+23nw322919 0.0 10172001
16:00+24nnw32270 0.0 10152012
19:00+22n22310 0.0 1015671
22:00+14se22500 0.0 101711
25 may, wed
wed2501:00+12se22560 0.0 101819
04:00+11ese22575 0.0 101823
07:00+18ese12365 0.0 1016203
10:00+28sw132163 0.0 10121647
13:00+30wsw56165 0.0 10093417
16:00+30w461679 0.0 10073742
19:00+27w3622100 0.0 1006639
22:00+16wnw51473100 0.3 1013845
26 may, thu
thu2601:00+14s1283100 0.5 101243
04:00+12ssw1191100 0.0 101311
07:00+16wsw1174100 0.0 1013405
10:00+17w2365100 0.1 1012804
13:00+21nw345199 0.8 10101659
16:00+23nw444077 0.7 10082537
19:00+21nw453490 0.8 10071069
22:00+13ssw22520 0.0 101117
27 may, fri
fri2701:00+10sse22600 0.0 101219
04:00+9sse22677 0.0 101117
07:00+14w13485 0.0 1010473
10:00+19wnw47277 0.0 10081655
13:00+22nw58225 0.0 10072200
16:00+23nw59170 0.0 10052824
19:00+20nnw57210 0.0 10062216
22:00+10ne11450 0.0 101010